GFSMA_prec_precacc_126.txt.gz
Total_Precipitation_Accumulation
0.37 0.38 0.36 0.37 0.75 0.72 0.77 0.38 0.21 0.26 0.29 0.35 0.31 0.22 0.07 0.22 0.26 0.48 0.48 0.48 0.52 0.65 0.64 0.45 0.28 0.17 0.10 0.04 0.03 0.02 0.03 0.09 0.11 0.18 0.22 0.18 0.18 0.22 0.26 0.26 0.25 0.18 0.18
0.43 0.43 0.40 0.32 0.49 0.54 0.62 0.51 0.20 0.26 0.29 0.25 0.27 0.16 0.06 0.19 0.26 0.43 0.49 0.64 0.74 0.81 1.03 0.86 0.56 0.26 0.07 0.05 0.02 0.02 0.03 0.04 0.07 0.10 0.21 0.21 0.17 0.21 0.20 0.19 0.24 0.27 0.21
0.56 0.44 0.45 0.33 0.32 0.38 0.35 0.47 0.41 0.36 0.31 0.29 0.24 0.16 0.10 0.13 0.16 0.29 0.38 0.51 0.53 0.47 0.66 1.17 1.01 0.52 0.13 0.05 0.02 0.02 0.03 0.04 0.06 0.09 0.12 0.21 0.18 0.16 0.21 0.21 0.25 0.30 0.31
0.64 0.58 0.48 0.36 0.40 0.35 0.22 0.32 0.23 0.30 0.35 0.29 0.22 0.14 0.10 0.06 0.06 0.17 0.27 0.34 0.52 0.38 0.39 0.43 0.67 0.47 0.22 0.08 0.03 0.02 0.03 0.04 0.05 0.06 0.05 0.11 0.29 0.25 0.16 0.22 0.34 0.38 0.37
0.67 0.59 0.54 0.40 0.44 0.42 0.23 0.19 0.13 0.17 0.26 0.30 0.24 0.20 0.12 0.06 0.05 0.12 0.18 0.27 0.42 0.50 0.33 0.26 0.23 0.19 0.15 0.13 0.06 0.03 0.03 0.03 0.05 0.06 0.03 0.02 0.05 0.23 0.34 0.31 0.32 0.46 0.47
0.78 0.65 0.70 0.57 0.51 0.42 0.31 0.20 0.14 0.17 0.20 0.21 0.25 0.26 0.16 0.09 0.07 0.16 0.22 0.25 0.31 0.42 0.51 0.27 0.14 0.10 0.06 0.06 0.09 0.05 0.03 0.03 0.03 0.05 0.03 0.03 0.03 0.04 0.08 0.20 0.38 0.55 0.63
0.92 0.69 0.71 0.66 0.55 0.35 0.21 0.15 0.15 0.17 0.26 0.25 0.35 0.40 0.25 0.16 0.09 0.14 0.21 0.20 0.21 0.27 0.38 0.42 0.16 0.10 0.06 0.04 0.05 0.07 0.04 0.06 0.04 0.03 0.05 0.04 0.04 0.04 0.03 0.05 0.14 0.28 0.50
0.76 0.70 0.73 0.57 0.45 0.42 0.41 0.28 0.15 0.13 0.23 0.30 0.25 0.29 0.30 0.43 0.16 0.08 0.14 0.16 0.14 0.19 0.18 0.20 0.21 0.11 0.06 0.03 0.02 0.04 0.06 0.07 0.07 0.05 0.05 0.05 0.02 0.03 0.03 0.03 0.06 0.18 0.34
0.58 0.54 0.69 0.68 0.50 0.49 0.52 0.44 0.25 0.14 0.20 0.29 0.21 0.25 0.29 0.31 0.25 0.08 0.08 0.11 0.15 0.14 0.15 0.15 0.14 0.10 0.05 0.02 0.01 0.00 0.02 0.03 0.07 0.07 0.07 0.05 0.02 0.02 0.03 0.03 0.04 0.04 0.08
0.41 0.47 0.44 0.57 0.44 0.47 0.50 0.54 0.47 0.38 0.43 0.48 0.25 0.11 0.11 0.20 0.29 0.33 0.16 0.10 0.13 0.13 0.11 0.13 0.14 0.17 0.14 0.08 0.03 0.02 0.00 0.00 0.02 0.06 0.07 0.11 0.09 0.05 0.05 0.06 0.05 0.04 0.05
0.30 0.44 0.50 0.60 0.49 0.46 0.50 0.53 0.59 0.58 0.63 0.54 0.31 0.24 0.16 0.22 0.21 0.23 0.29 0.25 0.19 0.13 0.12 0.16 0.15 0.17 0.18 0.17 0.16 0.13 0.08 0.03 0.01 0.01 0.04 0.07 0.11 0.16 0.12 0.09 0.10 0.10 0.11
0.23 0.34 0.59 0.60 0.61 0.57 0.68 0.63 0.68 0.76 0.80 0.83 0.58 0.54 0.39 0.32 0.27 0.35 0.28 0.24 0.27 0.19 0.19 0.26 0.32 0.27 0.28 0.20 0.16 0.14 0.10 0.05 0.03 0.03 0.01 0.02 0.05 0.09 0.11 0.13 0.13 0.14 0.16
0.13 0.17 0.36 0.51 0.53 0.71 0.77 0.96 0.97 0.90 1.07 1.08 1.14 0.94 0.75 0.63 0.42 0.45 0.53 0.51 0.56 0.43 0.41 0.33 0.25 0.21 0.25 0.37 0.32 0.28 0.21 0.16 0.11 0.05 0.02 0.01 0.02 0.02 0.04 0.04 0.09 0.12 0.16
0.25 0.21 0.36 0.60 0.71 0.83 0.81 0.94 1.17 1.26 1.32 1.48 1.38 1.26 0.96 0.68 0.64 0.73 0.79 0.85 0.75 0.41 0.24 0.16 0.10 0.13 0.11 0.14 0.23 0.26 0.15 0.13 0.17 0.18 0.15 0.09 0.03 0.02 0.02 0.03 0.04 0.08 0.10
1.00 0.63 0.71 0.74 0.84 0.92 1.11 1.15 1.17 1.07 0.96 0.89 1.15 1.34 1.25 0.92 0.77 0.61 0.62 0.67 1.00 0.81 0.24 0.07 0.08 0.07 0.10 0.11 0.13 0.20 0.23 0.16 0.15 0.14 0.11 0.12 0.14 0.11 0.04 0.03 0.03 0.05 0.07
1.65 1.28 1.04 0.95 0.75 0.81 1.01 0.90 0.82 0.84 1.02 0.95 0.99 1.14 1.11 0.99 0.97 0.85 0.74 0.62 0.68 0.76 0.55 0.08 0.09 0.06 0.09 0.11 0.10 0.11 0.10 0.18 0.18 0.19 0.22 0.10 0.04 0.10 0.16 0.14 0.07 0.07 0.11
1.04 1.08 0.92 0.82 0.63 0.70 0.94 0.89 0.80 0.76 0.80 1.01 1.00 1.06 1.07 0.98 1.09 0.81 0.63 0.56 0.47 0.49 0.55 0.24 0.14 0.14 0.19 0.18 0.15 0.12 0.09 0.09 0.10 0.15 0.26 0.27 0.21 0.20 0.19 0.23 0.24 0.15 0.11
1.28 1.00 0.72 0.60 0.57 0.57 0.79 0.97 0.93 0.84 0.81 0.76 0.82 0.93 1.09 1.07 0.92 0.79 0.77 0.67 0.56 0.50 0.66 0.58 0.34 0.27 0.21 0.18 0.20 0.20 0.17 0.16 0.15 0.21 0.27 0.36 0.42 0.35 0.28 0.27 0.26 0.22 0.13
0.69 0.63 0.68 0.56 0.54 0.54 0.59 0.56 0.51 0.55 0.60 0.68 0.72 0.74 0.79 0.88 0.94 0.81 0.71 0.66 0.56 0.54 0.59 0.64 0.44 0.29 0.24 0.19 0.25 0.24 0.26 0.26 0.24 0.26 0.19 0.22 0.29 0.33 0.35 0.34 0.31 0.29 0.26
0.39 0.38 0.34 0.36 0.37 0.37 0.39 0.41 0.45 0.45 0.40 0.37 0.39 0.54 0.69 0.84 0.93 0.93 0.92 0.78 0.75 0.72 0.65 0.65 0.56 0.42 0.34 0.24 0.33 0.33 0.40 0.39 0.32 0.24 0.27 0.27 0.32 0.34 0.33 0.34 0.40 0.38 0.39
0.34 0.35 0.36 0.40 0.43 0.45 0.50 0.46 0.37 0.35 0.33 0.34 0.37 0.47 0.60 0.78 0.87 0.87 0.99 0.94 0.95 0.96 0.92 0.89 0.77 0.59 0.43 0.30 0.33 0.35 0.53 0.47 0.58 0.61 0.64 0.68 0.69 0.66 0.68 0.74 0.64 0.56 0.47
0.54 0.54 0.58 0.58 0.51 0.47 0.87 0.63 0.45 0.35 0.39 0.54 0.61 0.59 0.70 1.00 0.94 1.01 1.02 1.04 1.08 1.17 1.07 0.79 0.71 0.67 0.46 0.47 0.50 0.70 0.85 0.93 0.79 0.59 0.64 0.66 0.64 0.67 0.65 0.64 0.80 0.78 0.73
1.07 1.12 1.05 0.94 0.67 0.54 0.87 0.70 0.63 0.34 0.39 0.50 0.54 0.56 0.56 0.55 0.62 0.40 0.73 0.82 0.84 1.06 1.17 1.05 1.00 0.85 0.87 0.94 1.02 1.11 1.18 1.16 1.01 0.80 0.90 1.11 1.07 1.05 0.91 0.85 0.97 0.56 0.52
1.36 1.10 0.97 0.88 0.88 0.93 0.97 0.88 0.98 0.65 0.62 0.59 0.51 0.44 0.43 0.43 0.69 0.70 0.62 0.85 1.02 1.23 1.41 1.53 1.70 1.81 1.77 1.51 1.45 1.41 1.36 1.44 1.36 1.23 1.18 1.35 1.14 1.17 1.05 0.90 1.28 0.71 0.53
1.06 0.97 0.86 0.84 0.75 0.70 0.98 0.81 0.80 0.54 0.65 0.69 0.65 0.71 0.79 0.57 1.21 1.04 0.65 0.79 1.04 1.20 1.69 1.72 1.71 1.76 1.69 1.45 1.27 1.34 1.64 1.90 1.79 1.43 1.24 1.24 1.14 1.15 1.10 1.00 1.05 1.11 0.68
1.22 1.18 1.11 1.06 1.11 0.75 1.05 0.94 0.92 0.75 0.90 0.92 0.88 0.95 1.58 1.20 1.59 1.24 1.05 1.05 1.26 1.37 1.34 1.37 1.42 1.39 1.30 1.29 1.52 1.27 1.39 2.01 2.32 2.17 1.70 1.60 1.44 1.42 1.58 1.37 1.08 0.97 0.83

GFSMA_prec_precacc_129.txt.gz
Total_Precipitation_Accumulation
0.37 0.38 0.36 0.37 0.75 0.72 0.77 0.38 0.21 0.26 0.29 0.35 0.31 0.22 0.07 0.22 0.27 0.48 0.49 0.48 0.52 0.65 0.64 0.45 0.28 0.19 0.10 0.05 0.03 0.02 0.03 0.09 0.11 0.18 0.22 0.19 0.19 0.22 0.26 0.26 0.26 0.18 0.18
0.43 0.43 0.40 0.32 0.49 0.54 0.62 0.51 0.20 0.26 0.29 0.25 0.27 0.16 0.07 0.19 0.27 0.44 0.49 0.64 0.74 0.81 1.03 0.86 0.56 0.26 0.07 0.05 0.03 0.02 0.03 0.04 0.07 0.10 0.22 0.21 0.17 0.21 0.21 0.20 0.24 0.27 0.21
0.56 0.44 0.45 0.34 0.32 0.38 0.35 0.47 0.41 0.36 0.31 0.29 0.24 0.16 0.10 0.13 0.16 0.30 0.39 0.51 0.53 0.47 0.66 1.17 1.01 0.52 0.13 0.05 0.03 0.02 0.03 0.04 0.06 0.09 0.12 0.21 0.18 0.16 0.21 0.22 0.25 0.30 0.31
0.65 0.58 0.48 0.36 0.40 0.35 0.22 0.32 0.23 0.30 0.35 0.29 0.22 0.14 0.10 0.06 0.06 0.18 0.27 0.35 0.52 0.38 0.39 0.43 0.67 0.47 0.22 0.08 0.03 0.03 0.03 0.04 0.05 0.06 0.05 0.11 0.29 0.25 0.17 0.22 0.34 0.39 0.38
0.67 0.59 0.54 0.40 0.44 0.42 0.23 0.19 0.13 0.17 0.27 0.30 0.24 0.20 0.12 0.06 0.06 0.13 0.19 0.28 0.43 0.50 0.33 0.26 0.23 0.19 0.15 0.13 0.06 0.03 0.03 0.03 0.05 0.06 0.03 0.02 0.05 0.23 0.35 0.31 0.32 0.46 0.47
0.78 0.65 0.70 0.57 0.52 0.42 0.32 0.21 0.14 0.17 0.20 0.21 0.26 0.26 0.17 0.09 0.08 0.16 0.22 0.25 0.31 0.43 0.51 0.27 0.14 0.10 0.06 0.06 0.09 0.05 0.03 0.03 0.03 0.05 0.03 0.03 0.03 0.04 0.08 0.20 0.38 0.55 0.64
0.93 0.69 0.71 0.66 0.56 0.35 0.21 0.15 0.15 0.18 0.27 0.26 0.35 0.40 0.25 0.16 0.09 0.15 0.21 0.20 0.21 0.28 0.38 0.42 0.16 0.10 0.06 0.04 0.05 0.07 0.04 0.06 0.04 0.03 0.05 0.04 0.04 0.04 0.03 0.05 0.14 0.29 0.50
0.76 0.70 0.73 0.57 0.45 0.42 0.41 0.28 0.15 0.13 0.24 0.32 0.25 0.29 0.30 0.43 0.16 0.08 0.14 0.16 0.14 0.19 0.18 0.20 0.21 0.11 0.06 0.03 0.02 0.04 0.06 0.08 0.08 0.05 0.05 0.05 0.03 0.03 0.03 0.04 0.06 0.18 0.35
0.59 0.54 0.69 0.68 0.50 0.49 0.52 0.44 0.25 0.15 0.20 0.30 0.21 0.25 0.29 0.31 0.25 0.08 0.08 0.11 0.15 0.14 0.15 0.15 0.14 0.10 0.05 0.02 0.01 0.00 0.02 0.03 0.08 0.10 0.08 0.06 0.03 0.03 0.04 0.04 0.04 0.05 0.09
0.47 0.47 0.44 0.57 0.44 0.48 0.50 0.54 0.47 0.38 0.43 0.48 0.25 0.11 0.11 0.20 0.29 0.33 0.16 0.10 0.13 0.13 0.11 0.13 0.14 0.17 0.15 0.08 0.03 0.02 0.00 0.00 0.02 0.06 0.10 0.14 0.10 0.05 0.05 0.06 0.05 0.04 0.05
0.42 0.46 0.50 0.60 0.50 0.46 0.50 0.53 0.59 0.58 0.63 0.54 0.31 0.24 0.16 0.22 0.21 0.23 0.29 0.25 0.19 0.13 0.12 0.16 0.15 0.17 0.18 0.17 0.16 0.13 0.08 0.03 0.01 0.01 0.04 0.08 0.13 0.16 0.12 0.09 0.10 0.10 0.11
0.39 0.38 0.60 0.60 0.61 0.58 0.68 0.63 0.68 0.76 0.81 0.83 0.58 0.54 0.39 0.32 0.27 0.36 0.30 0.25 0.27 0.19 0.19 0.26 0.32 0.27 0.28 0.20 0.16 0.14 0.10 0.05 0.03 0.03 0.01 0.02 0.06 0.09 0.11 0.13 0.13 0.14 0.16
0.41 0.27 0.36 0.51 0.54 0.71 0.77 0.97 0.98 0.90 1.07 1.08 1.14 0.94 0.75 0.63 0.42 0.45 0.54 0.52 0.57 0.44 0.41 0.33 0.25 0.21 0.25 0.37 0.32 0.28 0.21 0.16 0.11 0.05 0.02 0.01 0.02 0.02 0.04 0.04 0.09 0.12 0.16
0.79 0.47 0.44 0.66 0.72 0.83 0.82 0.95 1.18 1.27 1.33 1.49 1.39 1.27 0.97 0.68 0.65 0.76 0.81 0.88 0.76 0.42 0.24 0.16 0.10 0.13 0.11 0.14 0.23 0.26 0.15 0.13 0.17 0.18 0.15 0.09 0.03 0.02 0.02 0.03 0.04 0.08 0.10
2.08 1.51 0.96 0.86 0.85 0.93 1.13 1.21 1.20 1.10 1.00 0.91 1.16 1.36 1.25 0.92 0.77 0.65 0.73 0.82 1.10 0.87 0.27 0.09 0.10 0.07 0.10 0.11 0.13 0.20 0.23 0.16 0.16 0.14 0.12 0.13 0.15 0.11 0.05 0.03 0.03 0.05 0.07
3.37 2.77 1.51 1.19 0.96 0.97 1.12 0.97 0.85 0.88 1.06 0.99 1.02 1.19 1.16 1.04 1.05 1.09 1.13 1.07 1.13 1.22 0.86 0.15 0.15 0.10 0.10 0.11 0.10 0.11 0.10 0.18 0.18 0.19 0.22 0.10 0.05 0.11 0.16 0.15 0.07 0.07 0.11
2.32 2.87 1.95 1.27 0.95 0.99 1.17 1.10 0.94 0.85 0.84 1.05 1.03 1.10 1.13 1.07 1.17 0.97 0.92 0.96 0.89 0.86 0.80 0.32 0.24 0.23 0.21 0.18 0.15 0.12 0.09 0.09 0.10 0.15 0.26 0.27 0.21 0.21 0.21 0.24 0.24 0.15 0.11
2.01 1.76 1.36 1.45 1.39 0.94 0.95 1.09 1.01 0.96 0.97 0.94 0.95 1.08 1.22 1.22 1.06 0.87 0.81 0.68 0.57 0.55 0.73 0.62 0.39 0.31 0.24 0.19 0.21 0.20 0.17 0.16 0.15 0.21 0.27 0.37 0.44 0.37 0.33 0.31 0.29 0.24 0.13
0.97 1.09 1.05 0.90 1.01 0.81 0.69 0.68 0.59 0.59 0.65 0.79 0.85 0.87 0.91 1.05 1.11 0.89 0.76 0.68 0.59 0.59 0.64 0.69 0.45 0.31 0.24 0.20 0.26 0.24 0.26 0.26 0.24 0.26 0.19 0.23 0.30 0.37 0.42 0.44 0.40 0.35 0.29
0.66 0.64 0.65 0.69 0.64 0.51 0.48 0.51 0.55 0.54 0.47 0.44 0.48 0.63 0.76 0.91 1.00 0.98 0.96 0.82 0.77 0.75 0.67 0.68 0.60 0.47 0.37 0.26 0.36 0.37 0.41 0.40 0.32 0.24 0.28 0.27 0.32 0.35 0.37 0.44 0.50 0.47 0.44
0.52 0.53 0.48 0.51 0.58 0.60 0.65 0.61 0.49 0.43 0.38 0.39 0.43 0.54 0.66 0.85 0.93 0.91 1.02 0.97 1.00 1.02 0.99 0.96 0.85 0.67 0.48 0.32 0.34 0.36 0.55 0.47 0.58 0.61 0.64 0.68 0.70 0.67 0.70 0.78 0.69 0.63 0.53
0.62 0.62 0.66 0.64 0.56 0.52 0.91 0.66 0.47 0.39 0.43 0.56 0.62 0.60 0.72 1.03 0.96 1.05 1.07 1.09 1.13 1.22 1.19 1.01 0.89 0.82 0.59 0.57 0.53 0.70 0.86 0.93 0.79 0.59 0.64 0.66 0.65 0.68 0.66 0.65 0.84 0.82 0.79
1.10 1.14 1.07 0.95 0.68 0.55 0.88 0.71 0.64 0.34 0.39 0.50 0.54 0.56 0.56 0.55 0.62 0.40 0.74 0.84 0.86 1.10 1.23 1.11 1.09 0.96 0.96 1.00 1.04 1.11 1.18 1.16 1.01 0.80 0.91 1.11 1.08 1.07 0.94 0.92 1.08 0.62 0.57
1.36 1.10 0.97 0.88 0.88 0.93 0.97 0.88 0.98 0.65 0.62 0.59 0.51 0.44 0.43 0.43 0.69 0.70 0.62 0.85 1.05 1.28 1.48 1.58 1.74 1.87 1.84 1.56 1.49 1.43 1.38 1.46 1.38 1.26 1.21 1.38 1.15 1.18 1.09 0.97 1.41 0.79 0.61
1.06 0.97 0.86 0.84 0.75 0.70 0.98 0.81 0.80 0.54 0.65 0.69 0.65 0.71 0.79 0.57 1.21 1.04 0.65 0.79 1.04 1.22 1.74 1.79 1.77 1.82 1.75 1.49 1.30 1.36 1.67 1.97 1.85 1.46 1.26 1.25 1.16 1.17 1.12 1.05 1.13 1.25 0.82
1.22 1.18 1.12 1.06 1.11 0.75 1.05 0.94 0.92 0.75 0.90 0.92 0.88 0.95 1.59 1.20 1.59 1.24 1.05 1.05 1.26 1.37 1.35 1.38 1.43 1.41 1.32 1.31 1.56 1.31 1.44 2.11 2.45 2.26 1.78 1.69 1.50 1.46 1.62 1.41 1.11 1.02 0.88

GFSMA_prec_precacc_132.txt.gz
Total_Precipitation_Accumulation
0.37 0.38 0.36 0.37 0.75 0.72 0.77 0.38 0.21 0.26 0.29 0.35 0.33 0.23 0.07 0.22 0.27 0.48 0.49 0.48 0.52 0.69 0.70 0.50 0.29 0.20 0.11 0.05 0.04 0.03 0.04 0.09 0.11 0.18 0.22 0.19 0.19 0.23 0.26 0.27 0.27 0.19 0.19
0.43 0.43 0.40 0.32 0.49 0.54 0.62 0.51 0.20 0.26 0.29 0.25 0.29 0.20 0.07 0.19 0.28 0.44 0.49 0.64 0.74 0.81 1.05 0.92 0.56 0.26 0.08 0.05 0.04 0.03 0.03 0.04 0.07 0.10 0.22 0.21 0.18 0.22 0.21 0.20 0.25 0.28 0.21
0.56 0.44 0.45 0.34 0.32 0.38 0.35 0.47 0.41 0.36 0.31 0.29 0.25 0.22 0.11 0.14 0.17 0.30 0.39 0.51 0.53 0.47 0.67 1.19 1.02 0.52 0.14 0.05 0.05 0.03 0.03 0.04 0.06 0.09 0.12 0.21 0.18 0.16 0.21 0.22 0.25 0.30 0.31
0.65 0.58 0.48 0.36 0.40 0.35 0.22 0.32 0.23 0.30 0.35 0.30 0.23 0.16 0.11 0.06 0.06 0.18 0.28 0.35 0.52 0.38 0.39 0.43 0.69 0.49 0.22 0.10 0.04 0.03 0.04 0.05 0.06 0.06 0.05 0.11 0.29 0.25 0.17 0.22 0.34 0.39 0.38
0.70 0.59 0.54 0.40 0.44 0.42 0.23 0.19 0.13 0.17 0.27 0.31 0.26 0.24 0.16 0.07 0.06 0.13 0.20 0.28 0.43 0.50 0.33 0.26 0.23 0.19 0.16 0.15 0.11 0.08 0.07 0.05 0.06 0.06 0.04 0.02 0.05 0.23 0.35 0.31 0.32 0.46 0.48
1.01 0.74 0.70 0.58 0.52 0.43 0.32 0.21 0.14 0.18 0.20 0.21 0.26 0.28 0.20 0.12 0.09 0.17 0.23 0.26 0.31 0.43 0.51 0.27 0.14 0.10 0.06 0.07 0.10 0.09 0.07 0.05 0.03 0.05 0.04 0.03 0.03 0.04 0.08 0.20 0.38 0.56 0.64
1.29 0.91 0.77 0.67 0.56 0.35 0.22 0.15 0.15 0.18 0.27 0.26 0.36 0.41 0.25 0.18 0.11 0.16 0.22 0.21 0.21 0.28 0.38 0.42 0.16 0.10 0.06 0.04 0.05 0.08 0.06 0.07 0.04 0.03 0.05 0.04 0.04 0.04 0.03 0.05 0.14 0.29 0.50
1.11 1.01 0.87 0.61 0.46 0.42 0.41 0.29 0.16 0.13 0.24 0.32 0.26 0.30 0.31 0.44 0.17 0.10 0.15 0.16 0.14 0.19 0.18 0.20 0.21 0.11 0.06 0.03 0.02 0.04 0.07 0.12 0.11 0.07 0.06 0.05 0.03 0.03 0.03 0.04 0.06 0.18 0.35
0.86 0.82 0.94 0.78 0.56 0.51 0.53 0.44 0.25 0.15 0.20 0.30 0.21 0.26 0.30 0.31 0.25 0.08 0.08 0.11 0.15 0.14 0.15 0.15 0.14 0.10 0.05 0.02 0.01 0.00 0.02 0.03 0.10 0.15 0.11 0.06 0.03 0.04 0.05 0.04 0.04 0.05 0.09
0.70 0.73 0.66 0.74 0.51 0.49 0.50 0.54 0.47 0.38 0.43 0.48 0.26 0.12 0.11 0.20 0.29 0.33 0.16 0.10 0.13 0.13 0.11 0.13 0.14 0.17 0.15 0.08 0.03 0.02 0.00 0.00 0.02 0.07 0.15 0.18 0.12 0.05 0.05 0.06 0.05 0.04 0.05
0.57 0.76 0.88 0.79 0.58 0.50 0.51 0.53 0.59 0.58 0.63 0.54 0.31 0.24 0.16 0.22 0.21 0.23 0.29 0.25 0.19 0.13 0.12 0.16 0.15 0.17 0.18 0.17 0.16 0.13 0.08 0.03 0.01 0.01 0.05 0.12 0.17 0.17 0.12 0.09 0.10 0.10 0.11
0.48 0.71 1.08 1.24 0.91 0.63 0.69 0.64 0.68 0.76 0.81 0.83 0.58 0.54 0.39 0.32 0.27 0.36 0.30 0.25 0.27 0.19 0.19 0.26 0.32 0.27 0.28 0.20 0.16 0.14 0.10 0.05 0.03 0.03 0.01 0.02 0.07 0.11 0.12 0.13 0.13 0.14 0.16
0.46 0.49 0.85 1.29 1.02 0.84 0.79 0.99 0.98 0.90 1.07 1.08 1.14 0.94 0.75 0.63 0.42 0.45 0.54 0.52 0.57 0.44 0.41 0.33 0.25 0.21 0.25 0.37 0.32 0.28 0.21 0.16 0.11 0.05 0.02 0.01 0.02 0.02 0.04 0.04 0.09 0.12 0.16
0.82 0.77 0.96 1.22 1.40 1.17 0.86 0.96 1.19 1.27 1.33 1.49 1.39 1.27 0.97 0.69 0.65 0.76 0.81 0.89 0.77 0.42 0.25 0.18 0.11 0.14 0.12 0.15 0.23 0.26 0.15 0.13 0.17 0.18 0.15 0.09 0.03 0.02 0.02 0.03 0.04 0.08 0.10
2.10 1.72 1.66 1.49 1.41 1.36 1.24 1.23 1.22 1.12 1.01 0.92 1.16 1.36 1.26 0.93 0.78 0.66 0.73 0.83 1.12 0.90 0.33 0.18 0.16 0.12 0.15 0.15 0.14 0.21 0.23 0.16 0.16 0.14 0.12 0.13 0.15 0.11 0.05 0.04 0.04 0.05 0.07
3.39 2.96 2.47 2.17 1.88 1.76 1.44 1.01 0.90 0.91 1.09 1.02 1.04 1.21 1.18 1.06 1.07 1.11 1.14 1.09 1.20 1.35 1.07 0.33 0.31 0.22 0.22 0.17 0.15 0.16 0.13 0.19 0.18 0.19 0.22 0.10 0.05 0.11 0.17 0.15 0.09 0.09 0.12
2.36 3.19 3.19 2.61 2.33 1.89 1.58 1.26 1.02 0.88 0.87 1.09 1.07 1.12 1.15 1.10 1.24 1.09 1.05 1.11 0.99 0.91 0.87 0.38 0.31 0.33 0.32 0.27 0.21 0.21 0.16 0.14 0.11 0.16 0.27 0.27 0.21 0.21 0.21 0.24 0.24 0.16 0.12
2.13 2.07 2.34 2.70 2.30 2.15 1.70 1.45 1.25 1.14 1.14 1.07 1.04 1.16 1.30 1.28 1.14 1.00 1.00 0.91 0.88 0.78 0.76 0.62 0.40 0.36 0.30 0.25 0.25 0.23 0.20 0.18 0.16 0.22 0.27 0.37 0.44 0.37 0.33 0.31 0.30 0.26 0.16
1.03 1.25 1.61 1.78 1.88 2.18 1.94 1.25 0.96 0.85 0.92 1.11 1.11 1.04 1.01 1.14 1.20 0.99 0.86 0.80 0.73 0.71 0.69 0.70 0.46 0.33 0.25 0.20 0.26 0.26 0.29 0.29 0.25 0.26 0.19 0.23 0.30 0.37 0.42 0.45 0.41 0.38 0.36
0.80 0.78 0.86 1.16 1.38 1.25 1.30 1.36 1.41 1.15 0.67 0.59 0.74 0.98 0.99 1.01 1.11 1.07 1.06 0.88 0.84 0.83 0.75 0.75 0.64 0.49 0.39 0.27 0.38 0.40 0.46 0.44 0.34 0.25 0.29 0.27 0.33 0.35 0.37 0.44 0.51 0.50 0.50
0.66 0.75 0.77 0.85 1.04 1.25 1.22 1.08 1.03 0.97 0.69 0.60 0.57 0.63 0.79 0.91 0.98 0.95 1.07 1.00 1.02 1.04 1.02 1.01 0.90 0.72 0.52 0.35 0.36 0.39 0.58 0.49 0.60 0.62 0.65 0.68 0.70 0.67 0.70 0.78 0.70 0.64 0.55
0.68 0.75 0.85 0.88 0.81 0.80 1.33 1.18 0.94 0.79 0.77 0.83 0.83 0.72 0.81 1.12 1.04 1.13 1.14 1.13 1.14 1.23 1.20 1.04 0.93 0.88 0.64 0.64 0.65 0.81 0.94 1.00 0.84 0.60 0.64 0.66 0.65 0.68 0.66 0.66 0.85 0.83 0.80
1.20 1.25 1.21 1.09 0.80 0.68 0.99 0.85 0.85 0.53 0.54 0.63 0.63 0.66 0.63 0.58 0.65 0.43 0.75 0.85 0.87 1.11 1.23 1.11 1.09 0.97 0.98 1.05 1.12 1.20 1.28 1.28 1.08 0.83 0.91 1.11 1.08 1.07 0.94 0.93 1.10 0.62 0.58
1.36 1.10 0.97 0.88 0.88 0.94 0.98 0.88 0.98 0.65 0.62 0.59 0.51 0.45 0.43 0.43 0.69 0.70 0.62 0.85 1.05 1.28 1.49 1.59 1.75 1.88 1.86 1.60 1.54 1.49 1.42 1.49 1.40 1.27 1.22 1.38 1.16 1.19 1.09 0.97 1.42 0.80 0.61
1.06 0.97 0.87 0.84 0.75 0.71 0.98 0.81 0.80 0.54 0.65 0.69 0.65 0.71 0.79 0.57 1.21 1.05 0.65 0.79 1.05 1.22 1.74 1.79 1.77 1.83 1.77 1.51 1.32 1.40 1.72 2.01 1.87 1.47 1.29 1.29 1.17 1.18 1.14 1.06 1.14 1.27 0.82
1.22 1.18 1.12 1.06 1.11 0.75 1.05 0.94 0.92 0.75 0.90 0.92 0.88 0.95 1.59 1.20 1.59 1.24 1.05 1.05 1.26 1.37 1.35 1.38 1.43 1.41 1.32 1.32 1.57 1.32 1.45 2.12 2.47 2.29 1.82 1.76 1.55 1.50 1.66 1.43 1.13 1.03 0.88

GFSMA_prec_precacc_135.txt.gz
Total_Precipitation_Accumulation
0.37 0.38 0.36 0.37 0.75 0.72 0.77 0.38 0.21 0.26 0.29 0.35 0.33 0.23 0.07 0.22 0.27 0.48 0.49 0.48 0.52 0.70 0.75 0.60 0.40 0.35 0.21 0.13 0.10 0.04 0.04 0.09 0.11 0.18 0.22 0.19 0.19 0.23 0.26 0.27 0.28 0.20 0.20
0.47 0.44 0.40 0.32 0.49 0.54 0.62 0.51 0.20 0.26 0.29 0.25 0.30 0.20 0.07 0.19 0.28 0.44 0.49 0.64 0.74 0.81 1.07 0.95 0.65 0.33 0.12 0.14 0.13 0.07 0.04 0.04 0.07 0.10 0.22 0.21 0.18 0.22 0.21 0.20 0.25 0.29 0.22
0.73 0.52 0.46 0.34 0.32 0.38 0.35 0.47 0.41 0.36 0.31 0.29 0.26 0.27 0.16 0.15 0.17 0.30 0.39 0.51 0.53 0.47 0.67 1.21 1.05 0.53 0.17 0.16 0.13 0.08 0.06 0.05 0.06 0.09 0.12 0.21 0.18 0.16 0.21 0.22 0.26 0.31 0.31
0.86 0.77 0.57 0.36 0.40 0.35 0.22 0.32 0.23 0.30 0.35 0.30 0.24 0.18 0.14 0.10 0.08 0.18 0.28 0.35 0.52 0.38 0.39 0.43 0.69 0.51 0.23 0.14 0.13 0.09 0.06 0.07 0.07 0.06 0.05 0.11 0.29 0.25 0.17 0.23 0.35 0.39 0.38
0.93 0.81 0.72 0.45 0.46 0.44 0.24 0.20 0.13 0.17 0.27 0.31 0.26 0.28 0.19 0.09 0.07 0.13 0.20 0.28 0.43 0.50 0.33 0.26 0.23 0.20 0.18 0.17 0.19 0.17 0.10 0.06 0.07 0.08 0.04 0.02 0.05 0.23 0.35 0.32 0.33 0.47 0.48
1.13 0.96 0.94 0.75 0.60 0.47 0.35 0.24 0.18 0.19 0.20 0.21 0.28 0.33 0.24 0.16 0.11 0.17 0.23 0.26 0.31 0.43 0.51 0.27 0.14 0.10 0.07 0.11 0.18 0.20 0.18 0.17 0.05 0.05 0.04 0.03 0.03 0.04 0.08 0.20 0.39 0.56 0.65
1.32 1.08 1.07 0.94 0.70 0.40 0.23 0.20 0.22 0.22 0.28 0.28 0.41 0.45 0.28 0.21 0.15 0.19 0.23 0.21 0.22 0.28 0.38 0.42 0.16 0.10 0.06 0.04 0.06 0.13 0.10 0.17 0.14 0.06 0.06 0.04 0.04 0.04 0.03 0.05 0.15 0.29 0.51
1.14 1.10 1.10 0.92 0.67 0.49 0.47 0.36 0.19 0.16 0.26 0.36 0.27 0.32 0.33 0.45 0.17 0.11 0.16 0.17 0.14 0.19 0.18 0.20 0.21 0.11 0.06 0.03 0.02 0.04 0.09 0.15 0.18 0.12 0.08 0.05 0.03 0.03 0.03 0.04 0.06 0.18 0.35
0.89 0.87 1.08 1.03 0.94 0.81 0.62 0.48 0.29 0.18 0.22 0.33 0.22 0.26 0.30 0.32 0.25 0.08 0.08 0.11 0.15 0.14 0.15 0.15 0.14 0.10 0.05 0.02 0.01 0.00 0.02 0.03 0.12 0.20 0.16 0.08 0.03 0.04 0.05 0.04 0.04 0.05 0.09
0.70 0.75 0.73 1.08 0.94 1.02 0.68 0.61 0.53 0.44 0.49 0.51 0.28 0.12 0.11 0.20 0.29 0.33 0.16 0.10 0.13 0.13 0.11 0.13 0.14 0.17 0.15 0.08 0.03 0.02 0.00 0.00 0.02 0.08 0.18 0.23 0.16 0.05 0.05 0.06 0.05 0.04 0.05
0.57 0.77 0.90 0.89 1.15 1.39 1.13 0.71 0.70 0.66 0.67 0.57 0.32 0.25 0.16 0.22 0.21 0.23 0.29 0.25 0.19 0.13 0.12 0.16 0.15 0.17 0.18 0.17 0.16 0.13 0.08 0.03 0.01 0.01 0.05 0.14 0.22 0.21 0.12 0.09 0.10 0.10 0.11
0.48 0.71 1.08 1.29 1.20 1.25 1.55 1.02 0.83 0.89 0.88 0.89 0.62 0.55 0.39 0.32 0.27 0.36 0.30 0.25 0.27 0.19 0.19 0.26 0.32 0.27 0.28 0.20 0.16 0.14 0.10 0.05 0.03 0.03 0.01 0.02 0.08 0.13 0.13 0.14 0.14 0.14 0.16
0.46 0.49 0.85 1.32 1.48 1.45 1.58 1.75 1.36 1.07 1.18 1.14 1.16 0.94 0.75 0.63 0.42 0.45 0.54 0.52 0.57 0.44 0.41 0.33 0.25 0.21 0.25 0.37 0.32 0.28 0.21 0.16 0.11 0.05 0.02 0.01 0.02 0.02 0.05 0.05 0.09 0.12 0.16
0.82 0.77 0.96 1.22 1.46 1.44 1.47 1.62 1.78 1.51 1.44 1.55 1.44 1.32 0.98 0.69 0.65 0.76 0.82 0.90 0.77 0.42 0.25 0.18 0.11 0.14 0.12 0.15 0.23 0.26 0.15 0.13 0.17 0.18 0.15 0.09 0.03 0.02 0.02 0.03 0.04 0.08 0.10
2.10 1.72 1.66 1.49 1.42 1.47 1.68 1.78 1.74 1.55 1.14 0.98 1.20 1.40 1.28 0.96 0.80 0.67 0.74 0.83 1.13 0.91 0.33 0.18 0.16 0.14 0.16 0.16 0.15 0.22 0.23 0.16 0.16 0.14 0.12 0.13 0.15 0.11 0.05 0.04 0.04 0.05 0.07
3.41 2.96 2.47 2.17 1.88 1.86 1.78 1.44 1.32 1.42 1.35 1.12 1.12 1.25 1.21 1.07 1.08 1.12 1.15 1.10 1.20 1.36 1.09 0.34 0.31 0.23 0.22 0.17 0.15 0.18 0.15 0.23 0.22 0.22 0.23 0.11 0.05 0.11 0.17 0.16 0.09 0.10 0.14
2.37 3.20 3.19 2.61 2.33 1.93 1.90 1.79 1.44 1.16 1.06 1.19 1.16 1.19 1.20 1.13 1.25 1.11 1.07 1.14 1.02 0.94 0.90 0.40 0.33 0.35 0.32 0.27 0.22 0.22 0.18 0.16 0.15 0.20 0.29 0.28 0.21 0.21 0.21 0.25 0.25 0.16 0.13
2.15 2.07 2.34 2.70 2.30 2.19 1.95 1.89 1.76 1.70 1.53 1.29 1.14 1.24 1.36 1.31 1.16 1.03 1.09 1.11 1.07 0.96 0.98 0.79 0.50 0.40 0.31 0.25 0.26 0.24 0.20 0.19 0.17 0.22 0.30 0.39 0.46 0.38 0.34 0.32 0.31 0.27 0.16
1.06 1.25 1.61 1.78 1.89 2.22 2.10 1.82 1.56 1.35 1.36 1.39 1.29 1.14 1.10 1.22 1.29 1.06 0.92 0.88 0.84 0.91 0.91 0.84 0.53 0.39 0.27 0.21 0.27 0.26 0.29 0.29 0.26 0.28 0.22 0.26 0.31 0.38 0.43 0.45 0.41 0.39 0.37
0.90 0.82 0.87 1.17 1.45 1.50 1.79 1.95 2.07 1.79 1.43 1.15 1.01 1.15 1.19 1.24 1.30 1.29 1.21 1.06 1.00 0.97 0.84 0.82 0.69 0.56 0.42 0.31 0.41 0.40 0.47 0.44 0.35 0.27 0.31 0.30 0.35 0.36 0.38 0.44 0.51 0.50 0.51
0.97 0.83 0.80 0.86 1.07 1.40 1.60 1.62 1.63 1.74 1.71 1.67 1.27 1.03 1.16 1.39 1.43 1.31 1.52 1.48 1.30 1.15 1.15 1.16 1.03 0.77 0.56 0.38 0.38 0.40 0.59 0.49 0.60 0.63 0.66 0.70 0.72 0.68 0.71 0.78 0.70 0.64 0.56
0.75 0.75 0.86 0.90 0.85 0.91 1.54 1.48 1.46 1.37 1.32 1.44 1.50 1.36 1.35 1.56 1.38 1.46 1.43 1.42 1.43 1.38 1.30 1.14 1.02 0.93 0.65 0.65 0.66 0.82 0.95 1.03 0.87 0.62 0.65 0.67 0.65 0.69 0.67 0.66 0.86 0.83 0.80
1.20 1.25 1.22 1.11 0.86 0.78 1.09 0.98 1.13 0.98 1.08 1.16 1.13 1.08 1.04 0.96 0.94 0.66 0.98 1.08 1.08 1.28 1.35 1.18 1.15 1.02 0.99 1.05 1.12 1.20 1.28 1.29 1.12 0.87 0.96 1.15 1.09 1.07 0.94 0.93 1.10 0.63 0.58
1.36 1.10 0.98 0.89 0.90 0.95 0.99 0.90 0.99 0.69 0.69 0.65 0.56 0.49 0.50 0.53 0.81 0.82 0.73 0.91 1.10 1.34 1.54 1.62 1.77 1.89 1.86 1.60 1.54 1.49 1.43 1.50 1.42 1.31 1.30 1.44 1.17 1.19 1.09 0.97 1.43 0.80 0.61
1.06 0.97 0.87 0.84 0.75 0.71 0.98 0.81 0.80 0.54 0.65 0.69 0.65 0.71 0.79 0.57 1.21 1.05 0.65 0.79 1.05 1.22 1.74 1.79 1.77 1.83 1.77 1.51 1.32 1.40 1.72 2.01 1.88 1.48 1.31 1.34 1.20 1.19 1.14 1.06 1.15 1.28 0.83
1.22 1.18 1.12 1.06 1.11 0.75 1.05 0.94 0.92 0.75 0.90 0.92 0.88 0.96 1.59 1.20 1.59 1.24 1.05 1.05 1.26 1.37 1.35 1.38 1.43 1.41 1.32 1.32 1.57 1.32 1.45 2.12 2.47 2.29 1.82 1.76 1.55 1.50 1.67 1.43 1.13 1.03 0.89